When you browse on this site, cookies collect data to enhance your experience and personalize the content and advertising you see.
Visit our Privacy Policy to learn more. By continuing to use the site, you agree to this use of cookies and data.
  • en France
  • Liste des pays
  • À 7 jours
  • Température de l'eau
  • Carte satellitaire
  • Carte météo
  • Widgets météo
  • user-avatar
    Se connecter

    Météo par heure à Canberra

    Ce jour, 24 Mars, Dimanche

    Heure Température Précipitation Vent Pression Humidité
    00:00 +20°C° 0 mm 1 m/s 707 mmHg 71%
    01:00 +20°C° 0 mm 1 m/s 706 mmHg 70%
    02:00 +20°C° 0 mm 1 m/s 706 mmHg 70%
    03:00 +20°C° 0 mm 1 m/s 706 mmHg 70%
    04:00 +20°C° 0 mm 1 m/s 706 mmHg 68%
    05:00 +20°C° 0 mm 1 m/s 707 mmHg 69%
    06:00 +20°C° 0 mm 1 m/s 707 mmHg 69%
    07:00 +20°C° 0 mm 1 m/s 707 mmHg 70%
    08:00 +21°C° 0 mm 3 m/s 708 mmHg 64%
    09:00 +23°C° 0 mm 4 m/s 708 mmHg 57%
    10:00 +22°C° 0 mm 3 m/s 709 mmHg 69%
    11:00 +23°C° 0.1 mm 4 m/s 708 mmHg 63%
    12:00 +25°C° 0.1 mm 5 m/s 708 mmHg 57%
    13:00 +27°C° 0.1 mm 6 m/s 708 mmHg 51%
    14:00 +26°C° 0 mm 6 m/s 707 mmHg 52%
    15:00 +26°C° 0 mm 6 m/s 707 mmHg 52%
    16:00 +24°C° 0 mm 6 m/s 706 mmHg 53%
    17:00 +23°C° 0 mm 5 m/s 706 mmHg 60%
    18:00 +22°C° 0 mm 5 m/s 707 mmHg 67%
    19:00 +20°C° 0 mm 5 m/s 707 mmHg 74%
    20:00 +20°C° 0.2 mm 6 m/s 707 mmHg 75%
    21:00 +20°C° 0.2 mm 6 m/s 706 mmHg 75%
    22:00 +18°C° 0.2 mm 7 m/s 706 mmHg 76%
    23:00 +18°C° 0 mm 7 m/s 706 mmHg 76%

    Demain, 25 Mars, Lundi

    Heure Température Précipitation Vent Pression Humidité
    00:00 +18°C° 0 mm 7 m/s 705 mmHg 76%
    01:00 +18°C° 0 mm 7 m/s 705 mmHg 76%
    02:00 +19°C° 0.2 mm 6 m/s 704 mmHg 79%
    03:00 +19°C° 0.2 mm 6 m/s 704 mmHg 82%
    04:00 +19°C° 0.2 mm 5 m/s 703 mmHg 85%
    05:00 +19°C° 0.3 mm 5 m/s 703 mmHg 87%
    06:00 +19°C° 0.3 mm 5 m/s 703 mmHg 89%
    07:00 +19°C° 0.3 mm 5 m/s 703 mmHg 90%
    08:00 +19°C° 0.1 mm 5 m/s 703 mmHg 89%
    09:00 +19°C° 0.1 mm 6 m/s 703 mmHg 87%
    10:00 +20°C° 0.1 mm 7 m/s 703 mmHg 85%
    11:00 +18°C° 0.4 mm 7 m/s 703 mmHg 85%
    12:00 +17°C° 0.4 mm 6 m/s 703 mmHg 85%
    13:00 +16°C° 0.4 mm 6 m/s 703 mmHg 85%
    14:00 +16°C° 0.3 mm 6 m/s 703 mmHg 80%
    15:00 +17°C° 0.3 mm 7 m/s 703 mmHg 74%
    16:00 +17°C° 0.3 mm 7 m/s 703 mmHg 69%
    17:00 +16°C° 0 mm 6 m/s 704 mmHg 65%
    18:00 +15°C° 0 mm 6 m/s 704 mmHg 61%
    19:00 +14°C° 0 mm 5 m/s 705 mmHg 56%
    20:00 +13°C° 0 mm 4 m/s 706 mmHg 58%
    21:00 +12°C° 0 mm 3 m/s 706 mmHg 59%
    22:00 +12°C° 0 mm 2 m/s 707 mmHg 61%
    23:00 +10°C° 0 mm 2 m/s 707 mmHg 61%

    Après-demain, 26 Mars, Mardi

    Heure Température Précipitation Vent Pression Humidité
    00:00 +10°C° 0 mm 3 m/s 708 mmHg 61%
    01:00 +9°C° 0 mm 3 m/s 708 mmHg 61%
    02:00 +8°C° 0 mm 3 m/s 708 mmHg 61%
    03:00 +8°C° 0 mm 3 m/s 708 mmHg 60%
    04:00 +7°C° 0 mm 3 m/s 709 mmHg 60%
    05:00 +7°C° 0 mm 2 m/s 709 mmHg 60%
    06:00 +7°C° 0 mm 2 m/s 710 mmHg 59%
    07:00 +8°C° 0 mm 1 m/s 710 mmHg 59%
    08:00 +10°C° 0 mm 2 m/s 711 mmHg 51%
    09:00 +13°C° 0 mm 2 m/s 711 mmHg 42%
    10:00 +16°C° 0 mm 2 m/s 712 mmHg 34%
    11:00 +17°C° 0 mm 3 m/s 712 mmHg 31%
    12:00 +19°C° 0 mm 3 m/s 712 mmHg 29%
    13:00 +20°C° 0 mm 3 m/s 712 mmHg 27%
    14:00 +21°C° 0 mm 3 m/s 712 mmHg 27%
    15:00 +21°C° 0 mm 3 m/s 712 mmHg 27%
    16:00 +21°C° 0 mm 2 m/s 712 mmHg 27%
    17:00 +19°C° 0 mm 2 m/s 712 mmHg 36%
    18:00 +16°C° 0 mm 2 m/s 712 mmHg 45%
    19:00 +13°C° 0 mm 2 m/s 713 mmHg 53%
    20:00 +13°C° 0 mm 2 m/s 713 mmHg 59%
    21:00 +12°C° 0 mm 2 m/s 714 mmHg 64%
    22:00 +10°C° 0 mm 2 m/s 715 mmHg 69%
    23:00 +9°C° 0 mm 2 m/s 715 mmHg 73%

    27 Mars, Mercredi

    Heure Température Précipitation Vent Pression Humidité
    00:00 +10°C° 0 mm 1 m/s 715 mmHg 76%
    01:00 +9°C° 0 mm 1 m/s 715 mmHg 79%
    02:00 +9°C° 0 mm 1 m/s 714 mmHg 81%
    03:00 +9°C° 0 mm 1 m/s 714 mmHg 83%
    04:00 +9°C° 0 mm 1 m/s 714 mmHg 85%
    05:00 +9°C° 0 mm 1 m/s 714 mmHg 85%
    06:00 +10°C° 0 mm 1 m/s 715 mmHg 85%
    07:00 +10°C° 0 mm 1 m/s 715 mmHg 85%
    08:00 +12°C° 0 mm 2 m/s 715 mmHg 79%
    09:00 +14°C° 0 mm 2 m/s 716 mmHg 72%
    10:00 +17°C° 0 mm 3 m/s 716 mmHg 65%
    11:00 +18°C° 0 mm 3 m/s 716 mmHg 60%
    12:00 +19°C° 0 mm 3 m/s 715 mmHg 54%
    13:00 +20°C° 0 mm 3 m/s 715 mmHg 49%
    14:00 +20°C° 0 mm 3 m/s 714 mmHg 50%
    15:00 +20°C° 0 mm 3 m/s 714 mmHg 52%
    16:00 +20°C° 0 mm 3 m/s 713 mmHg 54%
    17:00 +18°C° 0 mm 3 m/s 713 mmHg 64%
    18:00 +16°C° 0 mm 3 m/s 713 mmHg 74%
    19:00 +13°C° 0 mm 3 m/s 713 mmHg 85%
    20:00 +14°C° 0 mm 2 m/s 714 mmHg 88%
    21:00 +13°C° 0 mm 2 m/s 714 mmHg 91%
    22:00 +13°C° 0 mm 2 m/s 714 mmHg 95%
    23:00 +12°C° 0 mm 1 m/s 714 mmHg 95%

    28 Mars, Jeudi

    Heure Température Précipitation Vent Pression Humidité
    00:00 +12°C° 0 mm 1 m/s 713 mmHg 96%
    01:00 +12°C° 0 mm 1 m/s 713 mmHg 96%
    02:00 +12°C° 0 mm 1 m/s 712 mmHg 96%
    03:00 +12°C° 0 mm 1 m/s 712 mmHg 96%
    04:00 +11°C° 0 mm 1 m/s 712 mmHg 96%
    05:00 +12°C° 0 mm 1 m/s 712 mmHg 95%
    06:00 +12°C° 0 mm 1 m/s 712 mmHg 94%
    07:00 +11°C° 0 mm 0 m/s 712 mmHg 93%
    08:00 +15°C° 0 mm 1 m/s 712 mmHg 84%
    09:00 +18°C° 0 mm 1 m/s 712 mmHg 75%
    10:00 +20°C° 0 mm 2 m/s 713 mmHg 66%
    11:00 +21°C° 0 mm 2 m/s 712 mmHg 60%
    12:00 +24°C° 0 mm 2 m/s 712 mmHg 55%
    13:00 +25°C° 0 mm 3 m/s 711 mmHg 49%
    14:00 +25°C° 0 mm 2 m/s 711 mmHg 47%
    15:00 +26°C° 0 mm 2 m/s 710 mmHg 46%
    16:00 +26°C° 0 mm 2 m/s 710 mmHg 44%
    17:00 +24°C° 0 mm 2 m/s 709 mmHg 52%
    18:00 +22°C° 0 mm 1 m/s 709 mmHg 59%
    19:00 +20°C° 0 mm 1 m/s 709 mmHg 67%
    20:00 +19°C° 0 mm 1 m/s 709 mmHg 73%
    21:00 +18°C° 0 mm 1 m/s 709 mmHg 78%
    22:00 +16°C° 0 mm 1 m/s 709 mmHg 84%
    23:00 +18°C° 0 mm 1 m/s 709 mmHg 85%

    29 Mars, Vendredi

    Heure Température Précipitation Vent Pression Humidité
    00:00 +18°C° 0 mm 1 m/s 708 mmHg 85%
    01:00 +18°C° 0 mm 1 m/s 708 mmHg 86%
    02:00 +18°C° 0.4 mm 1 m/s 708 mmHg 89%
    03:00 +16°C° 0.4 mm 1 m/s 707 mmHg 91%
    04:00 +16°C° 0.4 mm 1 m/s 707 mmHg 94%
    05:00 +16°C° 0.5 mm 1 m/s 707 mmHg 95%
    06:00 +16°C° 0.5 mm 1 m/s 707 mmHg 96%
    07:00 +16°C° 0.5 mm 1 m/s 707 mmHg 97%
    08:00 +18°C° 0.5 mm 2 m/s 707 mmHg 85%
    09:00 +20°C° 0.5 mm 3 m/s 707 mmHg 73%
    10:00 +23°C° 0.5 mm 4 m/s 707 mmHg 61%
    11:00 +23°C° 0.2 mm 4 m/s 707 mmHg 55%
    12:00 +25°C° 0.2 mm 5 m/s 706 mmHg 49%
    13:00 +25°C° 0.2 mm 5 m/s 706 mmHg 43%
    14:00 +25°C° 0 mm 5 m/s 705 mmHg 40%
    15:00 +25°C° 0 mm 5 m/s 705 mmHg 37%
    16:00 +23°C° 0 mm 5 m/s 704 mmHg 34%
    17:00 +21°C° 0 mm 4 m/s 704 mmHg 45%
    18:00 +19°C° 0 mm 3 m/s 704 mmHg 56%
    19:00 +16°C° 0 mm 2 m/s 704 mmHg 66%
    20:00 +15°C° 0 mm 2 m/s 705 mmHg 72%
    21:00 +15°C° 0 mm 1 m/s 705 mmHg 78%
    22:00 +14°C° 0 mm 1 m/s 705 mmHg 83%
    23:00 +13°C° 0 mm 1 m/s 705 mmHg 84%
    Voir plus